Location: Boiro
(42.6475°N, 8.8834°W)
Time: 15:02:19
(UTC+02:00)

Explorer 7 - Pass Details

Date: 26 June 2022
Orbit: 482 x 668 km, 50.3° (Epoch: 15 August)

Event Time Altitude Azimuth Distance (km) Brightness Sun altitude
Rises 06:06:54 0° 290° (WNW) 2,943 10.3 -8.4°
Reaches altitude 10° 06:09:30 10° 301° (WNW) 2,006 9.5 -8.0°
Maximum altitude 06:13:36 31° 4° (N) 1,077 8.9 -7.5°
Drops below altitude 10° 06:17:30 10° 67° (ENE) 1,901 11.0 -6.9°
Sets 06:19:55 0° 78° (ENE) 2,764 11.6 -6.6°
